Home   Weather   Ulm   Past weeks

Flag for Germany Past Weather in Ulm, Baden-Württemberg, Germany — Yesterday and Last 2 Weeks

Now
73 °F

Passing clouds.


Feels Like: 77 °F
Forecast: 62 / 80 °F
Wind: 2 mph from East

Location: Laupheim Airport

Current Time: May 29, 2017 at 11:01:20 pm

Latest Report: May 29, 2017 at 9:20 pm


Visibility: N/A

Pressure: 29.95 "Hg

Humidity: 53%

Dew Point: 55 °F

Location of UlmLocation

Past Weather in Ulm — Graph

°F

Ulm Temperature Yesterday

Maximum temperature yesterday: 84 °F (at 3:20 pm)
Minimum temperature yesterday: 54 °F (at 4:20 am)
Average temperature yesterday: 70 °F

High & Low Weather Summary for the Past Weeks

 TemperatureHumidityPressure
High84 °F (May 28, 3:20 pm)100% (May 15, 4:20 am)30.45 "Hg (May 15, 4:20 am)
Low37 °F (May 20, 5:36 am)30% (May 27, 5:20 pm)29.80 "Hg (May 19, 3:20 am)
Average61 °F66%30.15 "Hg
* Reported May 14 9:20 pm — May 29 9:20 pm, Ulm. Weather by CustomWeather, © 2017

Note: Actual official high and low records may vary slightly from our data, if they occured in-between our weather recording intervals... More about our weather records

Advertising

Ulm Weather History for the Previous 24 Hours

Scroll right to see more
 ConditionsComfort  
Time TempWeatherWind HumidityBarometerVisibility
9:20 pm
Mon, May 29
73 °FPassing clouds.2 mph53%29.95 "HgN/A
8:20 pm77 °FPassing clouds.5 mph47%29.95 "HgN/A
7:20 pm82 °FPassing clouds.3 mph40%29.95 "HgN/A
6:20 pm82 °FPassing clouds.5 mph40%29.95 "HgN/A
6:00 pm82 °FPassing clouds.3 mph40%29.95 "HgN/A
5:20 pm82 °FPassing clouds.3 mph45%29.98 "HgN/A
4:20 pm84 °FPassing clouds.3 mph37%29.98 "HgN/A
3:20 pm82 °FPassing clouds.3 mph37%30.01 "HgN/A
2:20 pm84 °FPassing clouds.3 mph40%30.01 "HgN/A
1:20 pm84 °FPassing clouds.2 mph40%30.01 "HgN/A
12:20 pm81 °FPassing clouds.2 mph45%30.04 "HgN/A
11:20 am79 °FPassing clouds.3 mph51%30.04 "HgN/A
10:20 am73 °FPassing clouds.5 mph65%30.04 "HgN/A
9:20 am72 °FPassing clouds.5 mph57%30.07 "HgN/A
8:20 am68 °FPassing clouds.3 mph64%30.07 "HgN/A
7:20 am63 °FPassing clouds.2 mph73%30.07 "HgN/A
6:20 am59 °FPassing clouds.3 mph82%30.07 "HgN/A
5:20 am57 °FPassing clouds.2 mph88%30.04 "HgN/A
4:20 am59 °FPassing clouds.1 mph82%30.07 "HgN/A
3:20 am57 °FPassing clouds.1 mph82%30.07 "HgN/A
2:20 am61 °FPassing clouds.1 mph77%30.07 "HgN/A
1:20 am63 °FPassing clouds.1 mph73%30.09 "HgN/A
12:20 am64 °FPassing clouds.1 mph68%30.09 "HgN/A
11:20 pm
Sun, May 28
68 °FPassing clouds.1 mph60%30.09 "HgN/A
Weather by CustomWeather, © 2017

See weather overviewHow to use our weather pages